Temp
71 72 68 68 57 52 48 53 59 58 59 61 64 63 59 58 57 51 66 71 71 71 72 73 74 75 76 75 75 75 76 77 77 76 76 76 76 76 76 76 75 76 77 77 76 76 76 75 75
70 76 68 59 51 45 48 53 55 60 64 63 65 61 59 55 64 62 63 71 72 72 72 72 72 75 75 75 75 75 76 76 76 76 76 76 76 77 76 75 74 75 75 76 76 75 75 74 75
75 74 63 55 47 46 48 54 57 60 62 62 61 63 60 59 64 65 69 71 72 70 71 71 72 74 75 75 75 75 75 76 76 75 76 76 76 75 76 76 75 75 75 75 75 74 74 74 75
70 68 62 53 48 54 55 58 61 62 62 65 60 57 62 68 68 68 71 72 70 70 70 70 72 74 74 74 75 75 75 75 75 75 75 75 75 74 74 74 75 74 74 74 74 74 73 73 74
67 60 54 48 51 55 56 59 61 61 61 60 60 54 57 67 70 71 71 72 68 68 68 70 72 73 74 74 74 74 74 74 74 74 74 74 74 74 74 74 74 74 74 73 73 73 72 73 73
63 57 49 45 49 56 58 60 62 58 59 58 59 57 57 67 69 70 71 69 70 68 69 69 68 70 72 73 73 73 74 73 74 73 73 73 73 74 73 73 73 73 74 73 72 72 72 72 72
57 53 49 48 51 53 60 62 61 61 61 58 63 55 56 63 68 69 68 68 69 69 68 67 67 67 68 69 70 71 72 72 72 72 72 71 70 71 72 71 72 72 73 72 71 71 71 71 71
59 57 49 48 51 54 61 61 62 62 60 66 65 55 55 64 68 68 68 67 67 67 67 66 65 66 66 66 66 67 69 69 69 69 67 67 67 67 68 67 70 71 71 71 70 70 70 70 70
61 52 48 52 53 56 59 60 60 61 63 59 61 61 65 69 68 65 65 65 65 66 66 65 65 65 65 66 64 64 65 66 66 65 64 63 63 64 64 65 68 69 69 70 69 69 68 66 65
57 50 54 59 57 58 58 59 62 60 58 57 58 62 68 68 67 63 63 64 64 64 65 65 65 65 65 68 64 64 64 67 65 65 63 63 62 63 64 62 64 66 66 68 68 68 66 62 60
57 54 57 59 60 62 61 58 59 59 54 59 60 62 65 64 64 64 63 64 64 65 66 65 65 65 64 64 63 63 63 64 64 64 63 64 62 61 60 60 60 60 60 60 61 60 59 60 59
57 62 61 61 61 60 60 62 58 58 62 65 66 67 65 65 64 64 63 63 63 64 66 66 66 66 64 64 63 63 62 63 63 63 64 62 60 59 59 58 58 58 58 56 56 56 58 58 60
57 59 60 61 60 60 62 59 61 59 59 62 64 65 65 65 64 63 66 65 65 65 66 67 67 67 66 64 63 63 62 62 63 63 64 65 60 59 59 58 58 57 58 57 56 56 57 57 59
60 58 59 59 60 60 60 55 60 60 58 59 63 62 63 63 64 62 63 65 65 66 66 67 67 68 68 67 65 64 63 64 63 63 63 63 62 60 59 58 58 58 57 57 56 56 56 56 57
59 53 54 55 58 58 60 53 56 58 58 58 58 59 59 61 62 64 66 66 67 67 67 66 67 66 67 67 70 70 69 68 65 65 66 64 63 61 60 59 58 58 57 57 56 56 55 55 56
55 51 45 53 58 56 55 50 59 58 58 56 57 55 58 59 63 64 65 67 66 67 66 67 69 66 66 67 69 69 69 68 68 67 67 67 65 63 60 59 58 58 57 56 55 54 54 54 53
48 39 42 47 55 51 53 51 58 58 57 57 55 55 57 59 60 63 65 67 66 67 66 66 67 66 65 65 67 68 68 67 67 67 66 67 66 65 61 59 59 59 57 56 56 54 54 53 53
41 41 42 44 50 50 48 52 55 55 57 57 55 55 56 58 62 65 63 64 66 67 68 67 67 66 65 65 64 66 66 67 67 67 66 66 66 65 64 62 60 58 56 55 54 54 54 54 52
48 48 46 48 51 50 48 51 54 56 52 54 54 55 57 58 62 63 63 64 63 63 65 66 65 65 64 62 63 62 65 65 66 66 66 65 65 65 64 63 63 61 59 59 58 57 57 54 53
48 45 45 45 48 48 45 48 51 52 55 56 57 55 56 57 60 62 60 59 60 62 62 63 65 65 65 66 65 62 62 64 66 66 65 65 64 65 64 63 62 62 60 58 58 54 51 54 52
45 44 44 45 45 44 41 43 47 53 54 55 57 57 57 57 59 60 58 57 56 57 57 60 62 64 66 66 63 60 61 62 63 64 64 64 64 64 63 62 62 61 60 59 58 56 55 54 53
43 49 49 45 43 38 42 34 42 46 50 52 57 54 56 56 57 56 54 53 52 52 53 56 58 59 63 62 62 62 62 61 61 62 63 64 64 63 63 62 62 61 61 59 58 56 56 55 52
48 49 47 44 42 39 35 36 41 41 46 49 53 52 55 53 53 54 52 52 50 52 51 52 54 56 58 62 63 62 60 60 60 63 63 63 62 62 62 62 61 60 60 59 58 55 55 55 54
51 47 46 41 39 33 38 37 37 43 49 48 49 51 52 50 49 49 50 51 50 50 51 52 53 53 54 55 60 62 59 63 61 61 61 61 61 61 61 60 60 60 59 58 58 57 55 55 54
49 43 33 32 30 30 31 32 41 46 49 51 52 49 47 47 47 48 49 49 49 48 50 51 51 51 52 53 55 59 60 60 60 62 61 60 59 59 59 59 58 58 58 58 57 56 55 54 53
43 44 32 24 24 29 33 31 42 48 46 50 51 48 47 45 46 47 47 47 47 48 49 50 50 50 50 51 52 55 57 58 58 60 59 58 58 58 58 58 58 58 58 57 56 55 54 53 52
43 41 45 33 22 26 32 37 47 46 46 44 46 46 45 45 45 45 45 45 45 46 48 49 50 49 50 50 50 51 52 54 55 55 55 54 54 54 55 55 55 54 54 54 54 53 52 52 51
45 49 39 36 24 22 30 31 38 42 45 45 44 44 44 44 44 44 44 44 44 45 45 47 48 48 47 48 48 48 48 50 51 53 52 51 51 52 51 51 51 50 50 50 49 47 45 45 44
42 41 41 42 33 27 24 33 44 47 47 47 47 46 44 43 43 43 43 44 44 44 44 44 45 45 45 46 46 46 46 46 48 49 49 48 48 48 47 46 45 43 43 43 42 41 41 41 41
42 44 44 40 33 32 32 36 46 46 48 48 48 47 45 45 43 42 43 43 42 42 42 42 43 43 43 43 43 44 44 45 46 45 45 44 43 41 41 41 40 40 40 39 39 38 38 37 37
MSLP
1014.44 1014.10 1014.18 1014.75 1016.78 1017.53 1017.25 1016.68 1016.01 1016.06 1016.08 1016.21 1016.18 1016.92 1018.23 1018.69 1019.09 1020.11 1019.74 1019.97 1020.27 1020.87 1020.99 1021.23 1021.33 1021.43 1021.55 1021.71 1021.88 1021.93 1021.90 1021.92 1021.91 1021.93 1021.87 1022.00 1022.10 1022.11 1022.11 1022.07 1022.05 1021.99 1022.05 1022.20 1022.35 1022.55 1022.58 1022.59 1022.48
1014.72 1014.33 1014.60 1016.11 1017.41 1018.03 1017.62 1016.77 1016.42 1015.86 1016.17 1016.39 1016.54 1017.45 1018.21 1019.00 1019.07 1019.72 1020.10 1020.36 1020.22 1020.78 1021.26 1021.35 1021.55 1021.68 1021.81 1021.93 1022.11 1022.17 1022.21 1022.20 1022.27 1022.27 1022.25 1022.35 1022.42 1022.46 1022.67 1022.75 1022.69 1022.62 1022.67 1022.69 1022.81 1023.02 1023.07 1022.98 1022.88
1014.55 1014.96 1015.98 1016.99 1017.99 1017.99 1017.36 1016.81 1016.48 1016.23 1016.19 1016.17 1017.12 1017.72 1018.48 1019.12 1019.36 1019.56 1019.73 1020.29 1020.46 1020.95 1021.40 1021.60 1021.68 1021.90 1022.05 1022.17 1022.32 1022.41 1022.45 1022.51 1022.58 1022.61 1022.67 1022.71 1022.82 1023.04 1023.03 1023.06 1023.13 1023.17 1023.19 1023.24 1023.28 1023.42 1023.38 1023.36 1023.19
1015.15 1015.74 1016.89 1017.42 1017.90 1017.40 1016.95 1016.63 1016.27 1016.31 1016.33 1016.50 1017.33 1018.54 1018.76 1018.77 1019.03 1019.18 1019.84 1020.35 1020.92 1021.41 1021.65 1021.89 1021.88 1022.05 1022.26 1022.35 1022.52 1022.67 1022.79 1022.86 1022.98 1023.07 1023.14 1023.21 1023.31 1023.46 1023.49 1023.54 1023.51 1023.63 1023.68 1023.74 1023.83 1023.85 1023.79 1023.78 1023.68
1015.88 1016.95 1017.46 1018.01 1017.67 1016.97 1016.37 1016.21 1015.92 1016.36 1016.61 1017.06 1017.35 1018.85 1019.14 1018.96 1018.94 1019.38 1019.92 1020.03 1020.51 1021.27 1021.87 1022.06 1022.13 1022.23 1022.43 1022.52 1022.65 1022.77 1022.97 1023.11 1023.28 1023.45 1023.57 1023.67 1023.73 1023.77 1023.87 1023.91 1023.89 1023.94 1023.97 1024.08 1024.14 1024.12 1024.16 1024.14 1024.11
1016.85 1017.76 1018.06 1018.16 1017.66 1016.82 1016.47 1016.15 1016.08 1016.40 1016.77 1017.39 1018.11 1018.94 1019.40 1019.24 1019.42 1019.87 1020.11 1020.42 1020.53 1020.94 1021.53 1022.03 1022.41 1022.51 1022.68 1022.91 1023.03 1023.07 1023.27 1023.38 1023.47 1023.66 1023.83 1023.96 1024.02 1024.02 1024.17 1024.27 1024.29 1024.37 1024.32 1024.37 1024.47 1024.52 1024.55 1024.57 1024.47
1017.32 1018.10 1018.15 1018.00 1017.54 1016.94 1016.36 1016.07 1016.17 1016.27 1016.78 1017.32 1017.83 1019.34 1019.69 1019.72 1019.87 1020.10 1020.55 1020.75 1021.03 1021.23 1021.71 1022.02 1022.39 1022.72 1022.88 1023.04 1023.20 1023.27 1023.43 1023.64 1023.79 1023.93 1024.09 1024.28 1024.42 1024.45 1024.51 1024.71 1024.76 1024.80 1024.75 1024.77 1024.86 1024.88 1024.89 1024.93 1024.88
1017.33 1017.92 1017.96 1017.75 1017.52 1016.73 1016.03 1016.10 1016.14 1016.00 1016.72 1017.15 1017.44 1018.85 1019.72 1019.51 1019.97 1020.38 1020.99 1021.40 1021.70 1021.72 1022.03 1022.35 1022.54 1022.70 1022.99 1023.25 1023.40 1023.47 1023.64 1023.86 1024.06 1024.23 1024.36 1024.50 1024.70 1024.86 1024.94 1025.04 1025.09 1025.17 1025.24 1025.23 1025.30 1025.24 1025.19 1025.26 1025.33
1017.09 1017.91 1017.72 1017.35 1017.31 1016.42 1015.98 1016.13 1016.12 1016.10 1016.58 1017.32 1017.54 1017.89 1017.83 1018.79 1019.82 1020.59 1021.32 1021.87 1022.07 1022.14 1022.15 1022.50 1022.72 1022.84 1023.12 1023.39 1023.66 1023.85 1023.94 1024.06 1024.25 1024.43 1024.57 1024.74 1024.89 1025.02 1025.12 1025.20 1025.31 1025.41 1025.51 1025.54 1025.57 1025.56 1025.53 1025.53 1025.61
1017.18 1017.63 1017.03 1016.54 1016.40 1016.12 1015.96 1015.91 1016.00 1016.48 1016.99 1017.71 1017.91 1018.06 1017.99 1019.00 1019.66 1020.62 1021.24 1021.69 1021.91 1022.10 1022.31 1022.38 1022.67 1022.87 1023.05 1023.26 1023.68 1023.93 1024.20 1024.36 1024.40 1024.58 1024.78 1024.93 1025.06 1025.17 1025.31 1025.45 1025.52 1025.59 1025.66 1025.72 1025.78 1025.83 1025.83 1025.84 1025.95
1016.68 1017.01 1016.38 1015.95 1016.02 1015.78 1015.97 1016.14 1016.00 1016.49 1017.20 1017.31 1017.80 1018.28 1018.65 1019.35 1019.87 1020.43 1020.90 1021.06 1021.28 1021.54 1022.01 1022.27 1022.50 1022.76 1022.98 1023.21 1023.59 1023.85 1024.12 1024.33 1024.44 1024.60 1024.78 1024.95 1025.24 1025.42 1025.61 1025.75 1025.84 1025.90 1025.95 1026.05 1026.05 1026.10 1026.11 1026.03 1026.04
1016.44 1015.99 1016.00 1015.58 1015.68 1015.81 1015.85 1015.79 1016.16 1016.39 1016.39 1016.30 1017.02 1017.52 1018.39 1019.08 1019.56 1019.97 1020.50 1020.94 1021.25 1021.49 1021.65 1021.99 1022.15 1022.51 1022.80 1023.08 1023.42 1023.75 1024.02 1024.21 1024.40 1024.49 1024.79 1025.15 1025.46 1025.64 1025.81 1025.97 1026.09 1026.19 1026.22 1026.31 1026.43 1026.50 1026.44 1026.37 1026.31
1016.17 1015.51 1015.54 1015.75 1015.60 1015.68 1015.98 1015.79 1016.03 1016.53 1016.32 1016.76 1017.41 1018.11 1018.52 1019.01 1019.40 1019.56 1020.02 1020.58 1020.94 1021.25 1021.40 1021.76 1021.90 1022.11 1022.50 1022.91 1023.29 1023.58 1023.83 1024.08 1024.13 1024.32 1024.52 1024.83 1025.35 1025.66 1025.85 1025.96 1026.05 1026.18 1026.29 1026.38 1026.52 1026.57 1026.52 1026.54 1026.48
1015.98 1015.85 1015.77 1016.08 1015.86 1015.88 1016.28 1016.07 1016.21 1016.66 1016.77 1017.29 1017.68 1018.32 1018.51 1018.79 1019.03 1019.51 1019.98 1020.29 1020.46 1020.72 1021.02 1021.28 1021.50 1021.71 1021.96 1022.38 1022.79 1023.20 1023.43 1023.71 1024.04 1024.22 1024.39 1024.66 1024.94 1025.34 1025.67 1025.96 1026.12 1026.22 1026.28 1026.35 1026.51 1026.65 1026.73 1026.75 1026.76
1016.27 1016.29 1016.14 1016.42 1016.38 1016.33 1016.27 1016.54 1016.45 1016.67 1017.23 1017.72 1018.19 1018.54 1018.69 1018.74 1019.01 1018.90 1019.17 1019.58 1019.88 1020.01 1020.49 1020.90 1021.17 1021.39 1021.61 1021.95 1022.26 1022.60 1022.90 1023.19 1023.64 1023.94 1024.11 1024.50 1024.79 1024.96 1025.20 1025.58 1025.84 1025.93 1026.18 1026.38 1026.60 1026.70 1026.79 1026.85 1026.83
1017.02 1016.87 1016.96 1016.49 1016.66 1016.56 1016.73 1016.58 1016.30 1016.85 1017.28 1018.13 1018.41 1018.96 1018.71 1018.76 1018.60 1018.58 1018.67 1019.01 1019.30 1019.61 1019.99 1020.44 1020.54 1021.09 1021.46 1021.63 1021.77 1022.17 1022.44 1022.79 1023.06 1023.34 1023.59 1023.87 1024.23 1024.63 1025.14 1025.45 1025.55 1025.63 1025.88 1026.17 1026.50 1026.78 1026.99 1027.09 1027.09
1017.11 1016.89 1016.91 1016.87 1016.63 1016.98 1017.25 1016.80 1016.07 1016.67 1017.21 1018.08 1018.44 1018.74 1018.61 1018.45 1018.44 1018.23 1018.23 1018.40 1018.72 1019.05 1019.49 1020.03 1020.42 1020.74 1021.21 1021.50 1021.56 1021.93 1022.23 1022.58 1022.76 1022.95 1023.23 1023.65 1024.01 1024.29 1024.76 1025.26 1025.45 1025.62 1025.87 1026.16 1026.32 1026.58 1026.84 1027.11 1027.12
1016.93 1017.34 1017.25 1016.89 1017.13 1017.19 1017.65 1017.24 1016.67 1016.71 1017.17 1017.68 1017.91 1018.35 1018.42 1018.08 1017.60 1017.56 1017.66 1017.98 1018.18 1018.52 1018.99 1019.46 1020.02 1020.37 1020.66 1021.19 1021.57 1021.70 1022.12 1022.28 1022.51 1022.80 1022.99 1023.27 1023.65 1024.07 1024.49 1024.80 1025.11 1025.51 1025.95 1026.18 1026.33 1026.46 1026.58 1026.73 1026.85
1017.24 1017.49 1017.52 1017.14 1016.86 1017.19 1017.47 1017.69 1017.10 1016.97 1017.36 1017.57 1017.65 1017.79 1017.68 1017.65 1016.93 1017.20 1017.04 1017.43 1018.07 1018.30 1018.61 1019.02 1019.69 1020.05 1020.55 1021.10 1021.59 1021.86 1021.79 1022.20 1022.30 1022.48 1022.80 1023.14 1023.43 1023.60 1024.00 1024.34 1024.60 1024.95 1025.43 1025.64 1025.81 1026.15 1026.35 1026.48 1026.65
1017.40 1017.52 1017.87 1017.63 1017.35 1017.67 1017.83 1017.72 1017.31 1017.33 1017.26 1016.99 1016.98 1017.23 1016.92 1017.04 1016.96 1017.07 1017.30 1017.40 1017.76 1018.05 1018.40 1018.71 1019.10 1019.66 1020.06 1020.39 1020.81 1021.09 1021.32 1021.67 1021.97 1022.19 1022.42 1022.63 1022.98 1023.38 1023.58 1023.89 1024.23 1024.51 1024.83 1025.16 1025.45 1025.73 1026.23 1026.29 1026.46
1017.20 1017.64 1017.94 1017.81 1017.75 1018.05 1018.23 1018.11 1017.34 1016.99 1016.78 1016.81 1016.63 1016.46 1016.36 1016.48 1016.71 1017.05 1017.35 1017.59 1017.68 1018.23 1018.58 1018.82 1018.94 1019.24 1019.57 1019.94 1020.46 1020.96 1021.24 1021.43 1021.77 1022.10 1022.22 1022.33 1022.57 1022.81 1023.11 1023.41 1023.74 1024.10 1024.40 1024.72 1024.94 1025.32 1025.80 1026.22 1026.49
1017.30 1017.11 1017.80 1018.06 1018.40 1018.64 1018.63 1018.42 1017.52 1016.74 1016.64 1016.37 1016.11 1016.19 1016.13 1016.38 1016.83 1016.94 1017.58 1017.93 1018.11 1018.36 1018.80 1018.82 1018.84 1019.27 1019.51 1019.87 1020.29 1020.49 1020.88 1021.18 1021.40 1021.47 1021.61 1021.81 1022.13 1022.38 1022.67 1022.94 1023.15 1023.34 1023.72 1024.13 1024.38 1024.58 1025.16 1025.56 1026.13
1016.64 1017.10 1017.69 1018.17 1018.64 1019.04 1019.34 1019.27 1016.95 1016.74 1016.30 1015.74 1015.40 1015.71 1016.04 1016.58 1017.13 1017.34 1017.92 1018.36 1018.56 1018.76 1018.96 1019.14 1019.17 1019.10 1019.38 1019.51 1019.73 1020.18 1020.69 1020.90 1021.03 1021.35 1021.43 1021.46 1021.69 1022.00 1022.24 1022.57 1022.79 1022.99 1023.26 1023.44 1023.88 1024.26 1024.68 1024.91 1025.28
1016.56 1017.38 1018.10 1018.78 1019.35 1019.85 1019.18 1019.13 1017.42 1016.45 1015.27 1014.85 1014.83 1015.54 1016.29 1017.13 1017.75 1018.08 1018.39 1018.60 1018.83 1018.96 1018.90 1019.11 1019.26 1019.27 1019.30 1019.51 1019.57 1019.73 1020.30 1020.56 1021.00 1021.27 1021.44 1021.43 1021.45 1021.71 1022.02 1022.31 1022.62 1022.74 1023.03 1023.29 1023.51 1023.82 1024.31 1024.56 1024.92
1016.29 1017.39 1018.85 1019.81 1020.25 1019.83 1019.63 1019.55 1017.15 1015.36 1014.87 1014.82 1014.77 1015.84 1016.54 1017.43 1018.15 1018.39 1018.75 1019.00 1019.24 1019.57 1019.35 1019.47 1019.50 1019.50 1019.38 1019.36 1019.49 1019.64 1019.96 1020.04 1020.31 1020.66 1021.10 1021.53 1021.58 1021.63 1021.76 1022.11 1022.55 1022.77 1022.97 1023.11 1023.35 1023.64 1024.01 1024.41 1024.85
1015.96 1016.32 1017.77 1018.97 1020.36 1020.48 1020.06 1018.73 1016.11 1014.92 1014.78 1014.71 1015.03 1016.02 1016.92 1017.91 1018.41 1018.69 1019.09 1019.36 1019.45 1019.68 1019.73 1019.66 1019.76 1019.78 1019.69 1019.57 1019.54 1019.79 1019.92 1020.07 1020.26 1020.56 1021.03 1021.31 1021.64 1021.74 1021.71 1021.99 1022.34 1022.61 1022.82 1022.94 1023.19 1023.47 1023.86 1024.21 1024.75
1016.21 1016.48 1016.85 1018.76 1020.71 1020.59 1019.36 1017.91 1015.87 1014.80 1014.72 1015.11 1015.79 1016.59 1017.70 1018.21 1018.75 1018.96 1019.41 1019.70 1019.90 1019.78 1019.98 1019.95 1019.83 1020.25 1020.07 1020.02 1019.70 1020.03 1020.23 1020.33 1020.62 1020.98 1021.55 1021.73 1022.04 1022.19 1022.19 1022.41 1022.70 1023.04 1023.21 1023.36 1023.66 1023.80 1024.26 1024.64 1024.96
1015.10 1015.70 1016.93 1017.97 1019.59 1020.20 1018.95 1017.77 1015.61 1014.87 1014.78 1015.60 1016.36 1017.12 1017.91 1018.39 1018.89 1019.32 1019.82 1019.86 1020.08 1019.98 1020.10 1020.32 1020.32 1020.54 1020.49 1020.37 1020.26 1020.80 1020.92 1021.12 1021.22 1021.36 1022.07 1022.30 1022.71 1022.74 1023.02 1023.17 1023.35 1023.81 1024.10 1024.16 1024.27 1024.66 1025.03 1025.09 1025.43
1015.56 1015.60 1016.07 1016.71 1018.06 1018.48 1018.53 1016.59 1014.11 1013.83 1014.13 1014.92 1015.84 1016.70 1017.41 1018.12 1018.89 1019.67 1019.89 1019.98 1020.29 1020.34 1020.51 1020.68 1020.71 1021.04 1021.24 1021.01 1020.81 1021.21 1021.55 1021.88 1021.59 1022.03 1022.84 1023.16 1023.35 1023.59 1023.85 1024.06 1024.33 1024.68 1025.02 1025.11 1025.21 1025.50 1025.74 1025.92 1026.18
1015.30 1015.29 1015.22 1016.10 1017.57 1017.80 1017.26 1015.25 1013.66 1013.80 1013.93 1014.59 1015.26 1016.03 1016.94 1017.92 1018.88 1019.72 1019.96 1020.32 1020.67 1020.88 1021.05 1021.15 1021.42 1021.33 1021.73 1021.63 1021.57 1021.87 1022.15 1022.38 1022.42 1023.24 1023.79 1023.98 1024.19 1024.43 1024.70 1024.88 1025.12 1025.37 1025.70 1025.94 1025.98 1026.15 1026.27 1026.39 1026.61
Wind_Speed
7 8 3 5 6 6 4 2 4 3 5 4 4 10 7 3 2 4 2 10 15 9 8 8 11 12 14 14 13 13 13 15 16 16 17 19 17 18 16 16 17 17 18 18 18 16 17 16 16
5 5 6 3 5 3 5 2 3 4 7 7 10 5 6 2 3 8 5 10 14 11 7 8 11 11 14 13 12 13 13 14 16 16 17 18 17 17 17 16 15 16 17 16 16 14 16 15 13
5 2 5 5 3 3 3 3 5 3 4 4 5 6 4 3 5 7 10 13 13 10 7 8 12 11 12 11 11 12 13 13 15 15 16 16 17 16 15 16 15 15 15 15 14 13 15 16 16
5 5 5 5 3 5 6 7 6 5 4 7 5 7 3 3 6 9 15 14 12 9 8 8 12 12 11 10 10 12 13 13 14 15 14 15 16 15 15 15 14 14 14 14 14 14 15 15 15
4 3 4 3 5 4 3 3 5 5 5 4 4 2 2 2 9 18 15 14 15 10 6 7 11 11 11 11 10 12 13 13 13 14 14 14 14 15 14 13 13 14 14 13 13 14 14 15 15
4 3 3 3 5 4 2 4 6 3 4 4 7 5 1 4 15 12 12 12 13 13 9 8 9 10 10 10 10 12 13 13 14 13 13 12 11 11 15 13 12 13 13 13 13 12 12 14 14
5 3 5 4 3 1 5 5 6 7 7 3 10 5 1 4 7 8 11 10 11 11 10 8 7 7 9 10 10 10 12 12 12 12 12 11 10 10 14 11 11 11 11 12 10 10 11 13 14
5 3 4 3 4 5 4 3 4 6 4 6 7 7 6 6 8 10 10 9 8 8 8 7 6 6 6 5 8 8 11 11 11 10 10 10 9 10 10 9 9 10 9 9 9 9 9 11 11
3 4 3 5 6 6 2 5 0 2 7 3 1 7 7 12 11 10 10 6 7 6 7 6 6 6 6 5 5 7 8 10 10 8 9 7 4 5 6 7 9 10 8 7 8 7 8 8 9
4 3 7 5 4 5 3 5 7 5 4 4 4 5 12 13 15 14 12 13 10 10 8 8 7 7 6 5 5 5 6 6 4 5 5 4 5 4 5 6 8 8 7 6 5 5 6 6 4
6 5 3 1 3 6 7 5 1 10 2 7 11 13 13 7 9 14 11 14 13 12 9 9 9 7 7 5 4 3 3 3 3 6 5 4 4 3 3 3 3 3 4 1 2 2 2 2 2
6 8 3 3 4 3 9 8 5 5 7 9 16 20 15 13 13 13 12 11 11 11 11 11 10 10 7 5 5 4 4 3 3 4 6 4 3 3 4 3 3 3 2 3 2 0 1 1 2
3 4 2 3 3 3 3 4 6 6 2 8 10 12 15 14 11 7 10 10 11 12 12 12 10 11 9 7 5 4 4 4 5 4 5 4 4 4 3 3 3 3 3 3 3 2 2 1 1
6 3 5 3 2 1 5 3 5 5 3 9 16 13 13 14 13 6 7 10 13 12 12 12 11 11 11 8 8 6 5 6 5 4 4 5 5 5 4 4 4 3 3 3 3 3 2 2 2
3 5 3 3 3 4 6 2 6 5 5 11 10 9 9 10 9 14 12 11 13 12 13 13 12 8 10 10 9 7 7 6 6 6 7 6 5 5 5 4 4 4 4 4 2 1 0 1 2
5 4 5 4 5 3 1 9 6 8 11 10 10 9 9 10 13 10 10 11 10 10 13 13 11 11 9 9 7 5 5 4 6 5 5 7 8 7 5 4 4 4 4 4 3 2 1 2 2
4 5 6 3 7 1 2 5 6 9 10 10 10 10 10 9 10 11 11 13 11 12 13 13 12 12 10 7 6 5 5 4 4 4 4 6 6 5 5 4 4 4 4 3 3 3 2 2 3
5 4 2 6 6 4 3 8 3 6 9 12 10 9 9 10 16 12 11 9 9 11 13 14 12 12 11 7 4 5 4 5 4 4 4 6 5 6 5 4 5 4 3 3 2 4 3 3 3
4 5 6 4 4 7 9 8 8 5 4 8 9 10 10 11 8 8 9 10 8 7 11 14 13 12 9 5 6 4 7 6 5 4 6 7 5 6 6 4 5 5 5 6 5 3 5 3 2
4 4 6 1 2 4 3 10 8 4 7 8 11 10 10 6 7 8 8 7 9 10 9 10 14 13 12 9 8 4 5 3 4 5 6 7 7 7 6 6 6 6 4 5 5 3 2 2 3
6 6 4 3 3 2 2 7 6 8 7 6 9 7 7 11 10 8 8 8 7 6 6 7 7 10 12 11 5 2 3 1 3 4 4 6 8 8 8 7 5 6 5 6 6 6 6 3 2
13 5 6 7 6 5 3 7 6 6 11 9 13 10 10 9 6 4 6 6 7 5 3 4 5 7 7 7 8 9 7 7 5 4 5 6 8 8 8 8 7 7 6 6 6 5 4 4 4
8 5 9 5 5 5 1 1 9 2 7 10 15 11 8 6 7 9 8 6 4 4 3 2 3 3 4 8 9 8 5 4 3 3 5 6 5 7 8 7 7 7 5 6 6 4 6 5 3
7 6 5 5 3 1 6 7 7 6 8 4 5 8 8 7 6 7 5 5 4 3 3 1 3 3 5 5 7 11 9 8 5 3 3 3 4 4 6 6 5 4 4 5 5 5 5 5 4
7 5 2 1 1 7 1 3 10 7 7 6 6 7 8 8 8 8 8 6 4 3 2 2 3 2 3 6 7 8 9 8 8 7 4 4 3 3 4 4 4 3 4 4 4 4 4 4 3
4 7 6 7 5 3 3 8 9 7 2 7 4 7 7 8 6 7 6 6 6 5 4 5 5 4 4 4 4 4 6 4 2 5 3 3 2 3 1 3 3 2 1 1 2 1 2 2 2
5 6 5 8 3 4 5 7 11 6 3 2 6 8 8 8 8 8 7 7 6 5 4 5 6 4 5 5 5 5 5 7 7 8 5 4 5 4 6 7 6 6 6 5 4 4 3 3 3
6 9 3 2 5 3 4 5 7 6 9 6 7 9 8 7 7 6 6 7 4 5 5 5 5 5 5 6 6 5 6 6 5 9 8 7 5 5 6 7 7 7 7 6 6 5 5 5 4
3 3 1 5 5 7 2 8 9 8 9 13 13 10 10 8 8 7 5 5 5 5 5 5 6 6 5 5 6 7 6 6 7 10 7 6 6 6 7 7 7 7 6 6 7 6 6 7 6
0 5 5 8 7 2 4 8 1 5 4 8 10 9 8 8 8 7 7 7 6 6 5 5 4 6 4 5 7 7 7 7 11 9 7 6 8 6 7 7 7 7 7 6 6 6 5 6 5
Wind_Direction
339 322 89 44 47 57 303 4 148 115 49 325 60 92 109 51 81 173 90 137 128 135 130 122 112 111 119 115 114 107 100 100 95 86 92 85 87 84 78 66 65 75 83 83 83 80 77 69 69
340 335 41 80 81 43 275 324 156 144 139 136 90 92 51 66 82 118 95 147 130 131 127 126 120 116 130 125 122 112 106 101 98 91 89 91 89 89 89 87 72 71 79 84 88 75 73 64 67
9 9 74 89 102 191 208 159 155 89 132 88 85 58 109 132 112 135 134 139 127 123 127 131 126 121 130 127 123 118 111 103 100 96 92 90 91 90 89 90 92 90 83 83 87 80 77 70 79
31 4 36 84 256 263 186 181 167 120 55 62 117 68 38 224 145 138 138 135 121 122 125 136 133 129 127 130 120 124 114 108 102 99 97 93 96 94 91 88 87 88 89 87 87 87 79 71 75
42 23 71 73 276 277 70 220 153 122 114 92 106 120 29 48 118 135 144 143 136 129 127 134 136 131 127 131 120 128 118 113 107 103 100 98 100 103 94 91 92 90 93 90 92 93 85 76 75
35 89 74 219 265 320 94 212 131 107 104 158 76 93 195 97 134 149 141 139 137 137 142 139 136 132 125 123 113 117 123 121 117 113 105 102 93 103 106 97 95 95 94 94 90 91 83 75 69
115 95 200 126 241 297 201 171 153 148 135 126 139 93 307 146 149 130 134 129 137 135 136 137 140 137 131 127 126 122 131 124 115 108 103 97 86 65 101 94 97 98 102 95 88 86 81 79 69
116 106 178 136 191 239 205 141 139 126 154 126 142 162 179 202 144 116 123 120 129 132 135 140 136 136 132 135 131 126 132 124 117 115 114 111 102 91 94 94 94 104 97 102 86 75 68 70 67
100 72 204 199 170 234 210 148 208 65 106 72 46 159 176 149 123 119 124 122 136 139 147 146 146 139 135 133 132 121 120 130 129 130 132 120 119 114 110 127 109 107 105 95 88 70 54 38 35
106 150 209 190 204 213 206 161 152 111 118 32 48 35 122 141 147 145 156 162 164 163 167 163 160 155 148 146 147 136 138 155 150 147 140 133 136 134 115 118 119 118 116 118 102 78 47 24 23
157 199 196 205 261 212 175 154 118 124 218 194 169 150 147 157 155 160 169 172 177 170 166 176 167 164 160 151 154 151 150 157 179 155 164 153 135 125 118 118 116 123 119 101 89 61 15 358 21
150 224 197 286 350 152 171 135 128 185 212 174 164 161 157 167 177 174 173 178 171 174 175 176 175 167 172 156 165 164 158 168 183 181 174 143 140 149 153 154 164 160 168 163 163 201 245 288 337
206 172 89 293 3 133 161 152 170 216 211 146 134 157 167 173 189 182 176 178 174 179 178 184 175 171 173 163 168 170 176 177 188 189 188 163 154 170 164 178 175 183 182 184 193 225 236 257 311
196 194 127 285 279 107 170 162 135 239 107 132 156 174 176 178 187 180 180 186 180 183 184 186 183 177 165 172 174 183 177 184 186 194 200 178 166 169 179 181 202 199 199 211 197 205 215 258 311
149 126 52 217 216 234 158 78 208 171 151 158 175 184 181 192 185 196 199 197 188 186 183 186 186 184 175 174 178 181 187 183 183 194 194 181 185 181 175 182 193 204 202 194 197 220 232 276 285
140 99 149 226 170 265 274 227 230 171 151 184 180 198 196 206 207 202 201 203 192 180 183 186 186 184 181 183 180 186 184 175 185 177 179 187 179 183 184 187 197 195 178 176 176 180 235 266 273
221 188 171 189 179 56 221 236 224 171 169 185 199 201 206 213 224 220 209 204 192 183 179 185 186 186 185 184 179 171 181 180 190 177 173 184 179 181 169 195 213 189 179 180 176 192 178 244 276
180 142 170 172 200 142 253 272 256 195 174 197 200 212 212 213 220 217 206 207 197 187 182 182 186 189 184 180 175 173 188 199 187 194 178 181 181 180 175 186 195 184 174 189 185 199 197 211 238
148 169 195 224 178 140 201 238 238 211 210 213 217 217 217 227 232 218 202 196 190 189 176 181 182 188 175 167 178 192 197 207 205 194 184 182 194 192 184 188 191 174 183 200 195 189 211 229 191
230 205 216 212 110 135 163 250 251 221 239 219 206 223 218 214 223 222 203 191 184 184 190 179 187 182 188 185 190 173 169 167 194 185 192 194 186 202 196 198 200 189 183 193 202 177 172 224 190
232 193 225 212 116 72 95 291 247 237 232 235 240 230 218 202 206 206 194 192 159 165 173 183 188 188 193 187 160 90 89 130 162 195 201 200 194 199 199 202 198 194 184 206 202 187 190 213 173
230 191 207 156 138 193 160 266 259 241 245 215 231 219 223 208 211 171 170 158 155 148 138 148 169 194 192 167 180 186 190 186 203 189 190 191 197 206 203 205 203 204 198 198 208 192 195 163 211
225 147 174 157 135 120 211 101 265 249 249 236 231 226 212 212 204 161 145 137 124 133 150 177 194 197 205 189 184 184 187 183 185 187 185 182 190 203 201 205 201 204 205 209 199 178 190 193 193
136 98 59 62 98 215 205 160 270 206 209 252 191 207 183 163 143 124 122 122 95 47 49 318 197 196 213 206 186 187 180 186 179 187 210 200 183 194 205 198 202 202 198 201 203 210 203 211 214
156 146 125 75 245 210 98 151 247 263 248 231 198 179 156 153 155 147 146 140 119 118 94 98 122 134 174 199 194 186 186 182 188 187 191 200 171 182 207 181 187 193 206 205 206 203 210 195 188
188 159 156 172 184 224 96 227 247 239 286 263 234 157 142 159 169 158 156 145 129 123 121 123 102 91 112 116 122 178 187 180 160 122 112 96 104 97 74 185 171 221 217 208 168 130 156 165 212
183 205 145 98 26 72 216 281 295 230 248 101 146 140 172 170 168 156 154 154 143 130 124 133 122 106 108 116 105 94 109 119 124 96 86 95 78 72 72 70 86 72 64 66 72 81 62 60 52
171 156 127 354 132 243 273 280 237 237 221 171 176 185 192 168 155 152 160 151 139 123 119 102 98 113 114 103 84 78 80 78 102 96 84 77 74 74 79 77 72 68 56 52 61 61 36 59 36
144 193 122 115 146 167 182 259 223 219 197 195 202 194 181 171 170 166 156 135 131 111 104 106 107 108 88 83 89 89 77 74 81 84 81 75 73 70 72 71 74 70 64 54 66 60 45 50 36
58 239 164 181 208 200 157 261 182 227 212 212 196 181 165 165 165 167 157 147 138 132 128 126 114 104 96 92 88 85 83 79 80 81 79 77 85 72 82 81 77 72 64 55 62 63 53 55 41